Tracking 21473 objects as of 20-Sep-2020
HD Live streaming from Space Station
objects crossing your sky now

QUAKESAT

Track QUAKESAT now!
10-day predictions
QUAKESAT is classified as:


NORAD ID: 27845
Int'l Code: 2003-031F
Perigee: 818.0 km
Apogee: 831.5 km
Inclination: 98.7 °
Period: 101.2 minutes
Semi major axis: 7195 km
RCS: 0.2303 m2 (medium)
Launch date: June 30, 2003
Source: United States (US)
Launch site: PLESETSK MISSILE AND SPACE COMPLEX (PKMTR)

Uplink (MHz):
Downlink (MHz): 436.682
Beacon (MHz):
Mode: 9600bps FSK
Call sign: KD7OVB
Status: Inactive


Nanosatellite; research on early warning for earthquakes.
aabbcc
Your satellite tracking list
Your tracking list is empty




NASA's NSSDC Master Catalog

Two Line Element Set (TLE):
1 27845U 03031F   20263.91814174 +.00000047 +00000-0 +40704-4 0  9991
2 27845 098.6806 271.4872 0009369 157.6380 202.5208 14.22295507893414
Source of the keplerian elements: AFSPC